STAR ONE C1             
1 32293U 07056A   19258.81690730 -.00000285  00000-0  00000-0 0  9992
2 32293   0.0229 164.6411 0002653  12.2633  46.6639  1.00269034 27042
SKYNET 5B               
1 32294U 07056B   19258.83487789  .00000133  00000-0  00000-0 0  9994
2 32294   0.0736  21.2711 0003674 154.0996 144.7730  1.00273074 43463
ARIANE 5 R/B            
1 32295U 07056C   19257.58067959  .00003508  00000-0  53745-3 0  9995
2 32295   6.3494  48.6050 7019435  93.1027 342.3630  2.62946322105680